#timestamp,LO_Frequency,Hit,StdDev 
1622167215.6,286047002.2,N
1622167235.5,286047001.8,N
1622167255.3,286047003.8,N
1622167275.1,286047003.2,N
1622167295.9,286047003.8,N
1622167315.7,286047003.1,N
1622167335.6,286047003.3,N
1622167355.4,286047003.3,N
1622167375.2,286047005.6,N
1622167395.1,286047007.2,N
1622167396.0,286047007.2,N
1622167415.8,286047006.4,N
1622167435.6,286047002.9,N
1622167455.5,286047004.3,N
1622167475.3,286047002.1,N
1622167495.2,286047002.5,N
1622167515.9,286047001.4,N
1622167535.7,286047000.9,N
1622167555.6,286047001.1,N
1622167575.4,286046998.6,N
1622167595.2,286046998.4,N
1622167615.1,286046997.0,N
1622167616.0,286046997.0,N
1622167635.8,286046998.9,N
1622167655.7,286047000.7,N
1622167675.5,286047000.6,N
1622167695.3,286047000.7,N
1622167715.2,286047002.4,N
1622167735.0,286047003.7,N
1622167735.9,286047003.7,N
1622167755.7,286047005.1,N
1622167775.6,286047003.6,N
1622167795.4,286047000.5,N
1622167815.3,286047003.8,N
1622167835.1,286047003.3,N
1622167836.0,286047003.3,N
1622167855.8,286047005.4,N
1622167875.7,286047003.2,N
1622167895.5,286047004.0,N
1622167915.4,286047011.9,Y
1622167935.2,286046999.8,P
1622167955.0,286047000.1,N
1622167955.9,286047000.1,N
1622167975.8,286047000.5,N
1622167995.6,286046998.3,N
1622168015.4,286046997.2,N
1622168035.3,286046998.0,N
1622168055.1,286046995.7,N
1622168075.9,286046997.3,N
1622168095.7,286046996.9,N
1622168115.6,286046996.6,N
1622168135.4,286047000.5,N
1622168155.2,286047003.9,N
1622168175.1,286047000.5,N
1622168176.0,286047000.5,N
1622168195.8,286047002.1,N
1622168215.6,286047001.6,N
1622168235.5,286047001.8,N
1622168255.3,286047003.6,N
1622168275.2,286047002.5,N
1622168295.9,286047004.0,N
1622168315.7,286047006.0,N
1622168335.6,286047002.4,N
1622168355.4,286047000.4,N
1622168375.2,286047002.0,N
1622168395.1,286047003.5,N
1622168396.0,286047003.5,N
1622168415.8,286047001.7,N
1622168435.7,286047004.1,N
1622168455.5,286047003.8,N
1622168475.3,286047001.8,N
1622168495.2,286047003.7,N
1622168515.0,286047002.1,N
1622168515.9,286047002.1,N
1622168535.7,286047003.2,N
1622168555.6,286047003.8,N
1622168575.4,286047005.4,N
1622168595.3,286047006.9,N
1622168615.1,286047007.6,Y
1622168635.8,286047000.3,P
1622168655.7,286047000.2,N
1622168675.5,286047002.5,N
1622168695.4,286046999.9,N
1622168715.2,286047002.7,N
1622168735.0,286047004.3,Y
1622168735.9,286047004.3,P
1622168755.8,286047001.0,N
1622168775.6,286047000.9,N
1622168795.5,286047001.9,N
1622168815.3,286047004.4,Y
1622168835.1,286047001.2,P
1622168855.9,286046997.1,P
1622168875.7,286046999.2,N
1622168895.6,286047000.8,N
1622168915.4,286046998.1,N
1622168935.2,286047003.9,N
1622168955.1,286047000.4,N
1622168956.0,286047000.4,N
1622168975.8,286047000.9,N
1622168995.6,286047000.3,N
1622169015.5,286047002.8,N
1622169035.3,286047001.6,N
1622169055.2,286047003.9,N
1622169075.9,286047002.7,N
1622169095.7,286047001.0,N
1622169115.6,286047000.8,N
1622169135.4,286047000.0,N
1622169155.2,286046998.1,N
1622169175.1,286047000.2,N
1622169176.0,286047000.2,N
1622169195.8,286047001.3,N
1622169215.7,286047000.0,N
1622169235.5,286047000.2,N
1622169255.3,286047001.3,N
1622169275.2,286047002.2,N
1622169295.9,286047000.1,N
1622169315.7,286047001.8,N
1622169335.6,286047003.2,N
1622169355.4,286047002.0,N
1622169375.3,286046998.1,N
1622169395.1,286047000.9,N
1622169415.8,286046999.4,N
1622169435.7,286047000.0,N
1622169455.5,286046999.7,N
1622169475.4,286047001.1,N
1622169495.2,286047004.3,Y
1622169515.0,286047002.8,P
1622169515.9,286047002.8,N
1622169535.8,286046998.2,N
1622169555.6,286046998.4,N
1622169575.5,286047000.8,N
1622169595.3,286046999.1,N
1622169615.1,286046997.5,N
1622169635.9,286046999.2,N
1622169655.7,286046993.3,Y
1622169675.6,286046993.6,P
1622169695.4,286046997.4,N
1622169715.2,286046998.5,N
1622169735.1,286047000.9,N
1622169736.0,286047000.9,N
1622169755.8,286046998.2,N
1622169775.6,286046999.1,N
1622169795.5,286046998.3,N
1622169815.3,286047000.2,N
1622169835.2,286047000.9,N
1622169855.9,286047000.2,N
1622169875.7,286047000.2,N
1622169895.6,286047000.1,N
1622169915.4,286047001.6,N
1622169935.2,286047004.2,N
1622169955.1,286047003.8,N
1622169956.0,286047003.8,N
1622169975.8,286047001.3,N
1622169995.7,286047002.8,N
1622170015.5,286046999.8,N
1622170035.3,286047001.9,N
1622170055.2,286047004.3,N
1622170075.0,286047002.6,N
1622170075.9,286047002.6,N
1622170095.7,286046999.9,N
1622170115.6,286047000.5,N
1622170135.4,286046998.3,N
1622170155.3,286047001.0,N
1622170175.1,286047001.1,N
1622170176.0,286047001.1,N
1622170195.8,286046998.7,N
1622170215.7,286047001.2,N
1622170235.5,286047002.8,N
1622170255.3,286047002.1,N
1622170275.2,286047002.0,N
1622170295.0,286047001.5,N
1622170295.9,286047001.5,N
1622170315.8,286047003.7,N
1622170335.6,286047003.9,N
1622170355.4,286047003.6,N
1622170375.3,286047000.4,N
1622170395.1,286047001.0,N
1622170415.9,286046999.3,N
1622170435.7,286046998.3,N
1622170455.5,286046998.1,N
1622170475.4,286046998.5,N
1622170495.2,286046998.5,N
1622170515.1,286047000.2,N
1622170516.0,286047000.2,N
1622170535.8,286047003.8,N
1622170555.6,286047004.0,N
1622170575.5,286047003.9,N
1622170595.3,286046998.1,N
1622170615.1,286046998.8,N
1622170635.9,286046996.6,N
1622170655.7,286046999.1,N
1622170675.6,286046998.8,N
1622170695.4,286046998.9,N
1622170715.2,286047001.2,N
1622170735.1,286047002.7,N
1622170736.0,286047002.7,N
1622170755.8,286047002.8,N
1622170775.7,286047001.2,N
1622170795.5,286046999.5,N
